Satellite: NOAA-11 Catalog number: 19531 Epoch time: 12256.68650482 Element set: 0054 Inclination: 098.7292 deg RA of node: 339.9920 deg Eccentricity: 0.0011333 Arg of perigee: 338.9464 deg Mean anomaly: 021.1243 deg Mean motion: 14.14980207 rev/day Decay rate: -6.9e-07 rev/day^2 Epoch rev: 23688 Checksum: 308
Satellite: NOAA-12 Catalog number: 21263 Epoch time: 12256.92536179 Element set: 0551 Inclination: 098.7251 deg RA of node: 278.1641 deg Eccentricity: 0.0013223 Arg of perigee: 309.6194 deg Mean anomaly: 050.3818 deg Mean motion: 14.25516782 rev/day Decay rate: -3.3e-07 rev/day^2 Epoch rev: 10905 Checksum: 289
Satellite: MET-3/5 Catalog number: 21655 Epoch time: 12257.80357775 Element set: 503 Inclination: 082.5521 deg RA of node: 089.5836 deg Eccentricity: 0.0014508 Arg of perigee: 101.8380 deg Mean anomaly: 258.4370 deg Mean motion: 13.17039900 rev/day Decay rate: 5.0e-07 rev/day^2 Epoch rev: 1355 Checksum: 287
Satellite: MET-2/21 Catalog number: 22782 Epoch time: 12257.59310560 Element set: 526 Inclination: 082.5504 deg RA of node: 322.3734 deg Eccentricity: 0.0020897 Arg of perigee: 264.9270 deg Mean anomaly: 094.9516 deg Mean motion: 13.83688299 rev/day Decay rate: -5.1e-07 rev/day^2 Epoch rev: 96139 Checksum: 326
Satellite: OKEAN-4 Catalog number: 23317 Epoch time: 12257.84091952 Element set: 997 Inclination: 082.5413 deg RA of node: 308.3190 deg Eccentricity: 0.0023110 Arg of perigee: 061.4918 deg Mean anomaly: 298.8621 deg Mean motion: 14.83942185 rev/day Decay rate: 4.80e-06 rev/day^2 Epoch rev: 96795 Checksum: 322
Satellite: NOAA-14 Catalog number: 23455 Epoch time: 12256.93924007 Element set: 0034 Inclination: 098.8239 deg RA of node: 339.3192 deg Eccentricity: 0.0010411 Arg of perigee: 067.0738 deg Mean anomaly: 293.1528 deg Mean motion: 14.13869716 rev/day Decay rate: 1.3e-07 rev/day^2 Epoch rev: 91319 Checksum: 302
Satellite: NOAA-15 Catalog number: 25338 Epoch time: 12256.74937973 Element set: 0400 Inclination: 098.6984 deg RA of node: 242.8699 deg Eccentricity: 0.0010084 Arg of perigee: 209.7302 deg Mean anomaly: 150.3262 deg Mean motion: 14.25116504 rev/day Decay rate: 3.2e-07 rev/day^2 Epoch rev: 74532 Checksum: 301
Satellite: RESURS Catalog number: 25394 Epoch time: 12257.91731355 Element set: 183 Inclination: 098.3285 deg RA of node: 241.5208 deg Eccentricity: 0.0001871 Arg of perigee: 015.0204 deg Mean anomaly: 345.1031 deg Mean motion: 14.24295987 rev/day Decay rate: 7.0e-07 rev/day^2 Epoch rev: 73703 Checksum: 277
Satellite: FENGYUN1 Catalog number: 25730 Epoch time: 12256.94280963 Element set: 0705 Inclination: 098.8504 deg RA of node: 214.4296 deg Eccentricity: 0.0019737 Arg of perigee: 106.3048 deg Mean anomaly: 254.0288 deg Mean motion: 14.09744579 rev/day Decay rate: 9.19e-06 rev/day^2 Epoch rev: 68697 Checksum: 341
Satellite: OKEAN-0 Catalog number: 25860 Epoch time: 12257.90141701 Element set: 734 Inclination: 097.9472 deg RA of node: 218.7839 deg Eccentricity: 0.0001172 Arg of perigee: 034.8559 deg Mean anomaly: 325.2715 deg Mean motion: 14.74298022 rev/day Decay rate: 6.07e-06 rev/day^2 Epoch rev: 70764 Checksum: 307
Satellite: NOAA-16 Catalog number: 26536 Epoch time: 12256.71542925 Element set: 0888 Inclination: 099.0860 deg RA of node: 300.1559 deg Eccentricity: 0.0010251 Arg of perigee: 193.5708 deg Mean anomaly: 166.5181 deg Mean motion: 14.12777962 rev/day Decay rate: -1.59e-06 rev/day^2 Epoch rev: 61739 Checksum: 327
Satellite: NOAA-17 Catalog number: 27453 Epoch time: 12256.75488909 Element set: 0834 Inclination: 098.3323 deg RA of node: 279.3507 deg Eccentricity: 0.0010685 Arg of perigee: 259.4092 deg Mean anomaly: 100.5870 deg Mean motion: 14.24480326 rev/day Decay rate: 1.03e-06 rev/day^2 Epoch rev: 53122 Checksum: 304
Satellite: NOAA-18 Catalog number: 28654 Epoch time: 12256.74029448 Element set: 0316 Inclination: 099.0552 deg RA of node: 215.5990 deg Eccentricity: 0.0013449 Arg of perigee: 269.9177 deg Mean anomaly: 090.0446 deg Mean motion: 14.11697558 rev/day Decay rate: 2.47e-06 rev/day^2 Epoch rev: 37691 Checksum: 340
Satellite: NOAA-19 Catalog number: 33591 Epoch time: 12256.76792008 Element set: 0505 Inclination: 098.8677 deg RA of node: 195.4920 deg Eccentricity: 0.0014570 Arg of perigee: 130.3334 deg Mean anomaly: 229.9137 deg Mean motion: 14.11382424 rev/day Decay rate: 3.2e-07 rev/day^2 Epoch rev: 18536 Checksum: 307
/EX SB KEPS @ AMSAT $ORB12257.M Orbital Elements 12257.MISC
HR AMSAT ORBITAL ELEMENTS FOR MANNED AND MISCELLANEOUS SATELLITES FROM WA5QGD FORT WORTH,TX September 13, 2012 Send SUBSCRIBE KEPS/UNSUBSCRIBE KEPS to majordomo@amsat.org only BID: ORB12257.M TO ALL RADIO AMATEURS BT
Satellite: HUBBLE Catalog number: 20580 Epoch time: 12257.19433996 Element set: 69 Inclination: 028.4704 deg RA of node: 287.5150 deg Eccentricity: 0.0003044 Arg of perigee: 270.3566 deg Mean anomaly: 089.6521 deg Mean motion: 15.02776566 rev/day Decay rate: 1.792e-05 rev/day^2 Epoch rev: 2798 Checksum: 313
Satellite: ISS Catalog number: 25544 Epoch time: 12257.82977436 Element set: 294 Inclination: 051.6423 deg RA of node: 040.6026 deg Eccentricity: 0.0015298 Arg of perigee: 067.3440 deg Mean anomaly: 067.8785 deg Mean motion: 15.50570216 rev/day Decay rate: 1.057e-05 rev/day^2 Epoch rev: 79179 Checksum: 313
Satellite: CO-58 Catalog number: 28895 Epoch time: 12257.58725851 Element set: 275 Inclination: 097.9023 deg RA of node: 119.9199 deg Eccentricity: 0.0016590 Arg of perigee: 231.1798 deg Mean anomaly: 128.7929 deg Mean motion: 14.60740140 rev/day Decay rate: 4.98e-06 rev/day^2 Epoch rev: 36656 Checksum: 360
Satellite: FALCON Catalog number: 30776 Epoch time: 12256.92273192 Element set: 0438 Inclination: 035.4320 deg RA of node: 100.7235 deg Eccentricity: 0.0001643 Arg of perigee: 352.5781 deg Mean anomaly: 007.4911 deg Mean motion: 15.08171905 rev/day Decay rate: 4.322e-05 rev/day^2 Epoch rev: 30350 Checksum: 258
Satellite: MAST Catalog number: 31126 Epoch time: 12257.57060482 Element set: 556 Inclination: 097.8759 deg RA of node: 263.5117 deg Eccentricity: 0.0093116 Arg of perigee: 194.6648 deg Mean anomaly: 165.1841 deg Mean motion: 14.54249963 rev/day Decay rate: 2.36e-06 rev/day^2 Epoch rev: 28711 Checksum: 318
Satellite: CAPE1 Catalog number: 31130 Epoch time: 12257.54196351 Element set: 566 Inclination: 097.8846 deg RA of node: 259.8225 deg Eccentricity: 0.0100778 Arg of perigee: 208.3130 deg Mean anomaly: 151.2551 deg Mean motion: 14.53060567 rev/day Decay rate: 4.53e-06 rev/day^2 Epoch rev: 28660 Checksum: 292
Satellite: COMPASS Catalog number: 32787 Epoch time: 12257.65840782 Element set: 408 Inclination: 097.7939 deg RA of node: 317.0120 deg Eccentricity: 0.0016098 Arg of perigee: 128.1199 deg Mean anomaly: 232.1470 deg Mean motion: 14.84319492 rev/day Decay rate: 1.307e-05 rev/day^2 Epoch rev: 23693 Checksum: 315
Satellite: AAUSAT2 Catalog number: 32788 Epoch time: 12257.67551030 Element set: 400 Inclination: 097.7939 deg RA of node: 317.4609 deg Eccentricity: 0.0015883 Arg of perigee: 128.3148 deg Mean anomaly: 231.9494 deg Mean motion: 14.84671053 rev/day Decay rate: 1.931e-05 rev/day^2 Epoch rev: 23696 Checksum: 323
Satellite: DO-64 Catalog number: 32789 Epoch time: 12257.69528608 Element set: 416 Inclination: 097.8054 deg RA of node: 319.8540 deg Eccentricity: 0.0015332 Arg of perigee: 124.6480 deg Mean anomaly: 235.6114 deg Mean motion: 14.86383949 rev/day Decay rate: 2.735e-05 rev/day^2 Epoch rev: 23702 Checksum: 330
Satellite: CO-66 Catalog number: 32791 Epoch time: 12257.81930252 Element set: 397 Inclination: 097.7894 deg RA of node: 316.8353 deg Eccentricity: 0.0016857 Arg of perigee: 128.6979 deg Mean anomaly: 231.5673 deg Mean motion: 14.83681916 rev/day Decay rate: 1.365e-05 rev/day^2 Epoch rev: 23688 Checksum: 367
Satellite: RS-30 Catalog number: 32953 Epoch time: 12257.66581326 Element set: 137 Inclination: 082.4985 deg RA of node: 240.1107 deg Eccentricity: 0.0020063 Arg of perigee: 112.2549 deg Mean anomaly: 248.0659 deg Mean motion: 12.43027491 rev/day Decay rate: 1.0e-07 rev/day^2 Epoch rev: 19555 Checksum: 280
Satellite: PHARMSAT Catalog number: 35002 Epoch time: 12226.86484473 Element set: 78 Inclination: 040.4341 deg RA of node: 050.6671 deg Eccentricity: 0.0012079 Arg of perigee: 300.9773 deg Mean anomaly: 059.0492 deg Mean motion: 16.39309245 rev/day Decay rate: 7.728342e-02 rev/day^2 Epoch rev: 18355 Checksum: 302
Satellite: METEOR-M Catalog number: 35865 Epoch time: 12257.74489430 Element set: 774 Inclination: 098.6451 deg RA of node: 310.3679 deg Eccentricity: 0.0002616 Arg of perigee: 137.2531 deg Mean anomaly: 222.8849 deg Mean motion: 14.21869055 rev/day Decay rate: -3.0e-08 rev/day^2 Epoch rev: 15518 Checksum: 312
Satellite: RS-38 Catalog number: 35869 Epoch time: 12257.75274802 Element set: 765 Inclination: 098.6405 deg RA of node: 310.3561 deg Eccentricity: 0.0004709 Arg of perigee: 145.5782 deg Mean anomaly: 214.5700 deg Mean motion: 14.22086478 rev/day Decay rate: 3.3e-07 rev/day^2 Epoch rev: 15520 Checksum: 306
Satellite: JUGNU Catalog number: 37839 Epoch time: 12256.93686288 Element set: 0227 Inclination: 019.9597 deg RA of node: 186.6331 deg Eccentricity: 0.0019577 Arg of perigee: 109.8182 deg Mean anomaly: 250.4331 deg Mean motion: 14.12080607 rev/day Decay rate: 6.20e-06 rev/day^2 Epoch rev: 04766 Checksum: 320
Satellite: SRMSAT Catalog number: 37841 Epoch time: 12256.19097637 Element set: 0228 Inclination: 019.9698 deg RA of node: 197.7329 deg Eccentricity: 0.0011639 Arg of perigee: 066.8198 deg Mean anomaly: 293.3459 deg Mean motion: 14.10160012 rev/day Decay rate: 2.64e-06 rev/day^2 Epoch rev: 04749 Checksum: 327
